Weather History for KESN - December, 2012

Change the Weather History Date:

Tuesday, December 11, 2012

  Actual Average Record
Temperature  
Mean Temperature 50 °F -  
Max Temperature 60 °F 53 °F 72 °F (1966)
Min Temperature 40 °F 34 °F 10 °F (1968)
Degree Days  
Heating Degree Days 15    
Moisture  
Dew Point 44 °F    
Average Humidity 84    
Maximum Humidity 100    
Minimum Humidity 62    
Precipitation  
Precipitation 0.13 in - - ()
Sea Level Pressure  
Sea Level Pressure 29.95 in    
Wind  
Wind Speed 8 mph (NNW)    
Max Wind Speed 22 mph    
Max Gust Speed 26 mph    
Visibility 10 miles    
Events Rain    
Averages and records for this station are not official NWS values.
T = Trace of Precipitation, MM = Missing Value Source: NWS Daily Summary

Daily Weather History Graph

Daily Weather History Graph

Search for Another Location

Airport or City:

Trip Planner

Search our weather history database for the weather conditions in past years. The results will help you decide how hot, cold, wet, or windy it might be!

Date:

Astronomy

Dec. 11, 2012 Rise Set
Actual Time 7:12 AM EST 4:42 PM EST
Civil Twilight 6:43 AM EST 5:12 PM EST
Nautical Twilight 6:09 AM EST 5:45 PM EST
Astronomical Twilight 5:37 AM EST 6:18 PM EST
Moon 5:05 AM EST (12/11) 3:19 PM EST (12/11)
Length of Visible Light 10h 29m
Length of Day
9h 29m
Waning Crescent, 4% of the Moon is Illuminated
Dec 11
Waning Crescent
Dec 13
New
Dec 20
First Quarter
Dec 28
Full
Jan 4
Last Quarter

Hourly Weather History & Observations

Time (EST) Temp. Windchill Dew Point Humidity Pressure Visibility Wind Dir Wind Speed Gust Speed Precip Events Conditions
12:19 AM 57.7 °F - 57.7 °F 100% 29.67 in 10.0 mi SW 6.9 mph - N/A   Clear
12:40 AM 59.2 °F - 59.2 °F 100% 29.67 in 10.0 mi SW 5.8 mph - N/A   Mostly Cloudy
1:01 AM 59.5 °F - 59.5 °F 100% 29.68 in 7.0 mi West 3.5 mph - 0.01 in   Mostly Cloudy
1:23 AM 59.5 °F - 59.5 °F 100% 29.68 in 7.0 mi WNW 5.8 mph - 0.03 in Rain Rain
1:44 AM 60.8 °F - 60.8 °F 100% 29.69 in 10.0 mi West 6.9 mph - 0.04 in   Mostly Cloudy
2:05 AM 59.5 °F - 59.5 °F 100% 29.72 in 5.0 mi NNW 21.9 mph 26.5 mph 0.09 in Rain Heavy Rain
2:27 AM 52.9 °F - 52.9 °F 100% 29.74 in 10.0 mi NNW 15.0 mph 26.5 mph 0.09 in Rain Rain
2:48 AM 50.9 °F - 50.9 °F 100% 29.76 in 10.0 mi North 12.7 mph 23.0 mph 0.09 in   Mostly Cloudy
3:09 AM 50.5 °F - 50.4 °F 99% 29.78 in 10.0 mi North 11.5 mph 17.3 mph N/A   Mostly Cloudy
3:52 AM 49.5 °F - 47.8 °F 94% 29.81 in 10.0 mi North 6.9 mph - N/A   Overcast
4:13 AM 49.3 °F - 46.8 °F 91% 29.82 in 10.0 mi North 8.1 mph - N/A   Overcast
4:34 AM 48.7 °F - 46.4 °F 92% 29.84 in 10.0 mi NNW 6.9 mph - N/A   Overcast
4:56 AM 48.4 °F - 46.8 °F 94% 29.85 in 10.0 mi North 8.1 mph - N/A   Overcast
5:17 AM 47.8 °F - 45.9 °F 93% 29.86 in 10.0 mi North 11.5 mph - N/A   Overcast
5:38 AM 47.5 °F - 45.1 °F 92% 29.86 in 10.0 mi North 8.1 mph 16.1 mph N/A   Overcast
5:50 AM 46.4 °F 42.9 °F 44.6 °F 93% 29.86 in 10.0 mi NNW 6.9 mph - N/A   Overcast
5:59 AM 46.9 °F - 44.8 °F 92% 29.88 in 10.0 mi NNW 12.7 mph - N/A   Overcast
6:21 AM 46.6 °F - 44.6 °F 93% 29.88 in 10.0 mi North 8.1 mph - N/A   Overcast
6:38 AM 46.4 °F 41.5 °F 44.6 °F 93% 29.89 in 10.0 mi North 10.4 mph 18.4 mph N/A Rain Light Rain
6:52 AM 44.6 °F 39.2 °F 42.8 °F 93% 29.90 in 10.0 mi North 10.4 mph 18.4 mph N/A   Overcast
7:50 AM 44.6 °F 40.2 °F 42.8 °F 93% 29.93 in 10.0 mi North 8.1 mph - N/A   Mostly Cloudy
8:54 AM 46.4 °F 40.7 °F 41.0 °F 81% 29.99 in 10.0 mi NNW 12.7 mph 16.1 mph N/A   Mostly Cloudy
9:53 AM 46.4 °F 41.1 °F 39.2 °F 76% 30.00 in 10.0 mi North 11.5 mph - N/A   Mostly Cloudy
10:55 AM 48.2 °F - 39.2 °F 71% 30.02 in 10.0 mi North 11.5 mph - N/A   Mostly Cloudy
11:45 AM 48.2 °F - 37.4 °F 66% 30.01 in 10.0 mi North 8.1 mph - N/A   Mostly Cloudy
12:48 PM 48.2 °F - 37.4 °F 66% 30.02 in 10.0 mi North 10.4 mph - N/A   Overcast
1:50 PM 48.2 °F - 37.4 °F 66% 30.04 in 10.0 mi North 5.8 mph - N/A   Mostly Cloudy
2:53 PM 48.2 °F - 35.6 °F 62% 30.06 in 10.0 mi NNW 6.9 mph - N/A   Overcast
3:53 PM 48.2 °F - 35.6 °F 62% 30.08 in 10.0 mi NNW 4.6 mph - N/A   Overcast
4:53 PM 46.4 °F - 37.4 °F 71% 30.11 in 10.0 mi Calm Calm - N/A   Overcast
5:53 PM 42.8 °F - 37.4 °F 81% 30.14 in 10.0 mi Calm Calm - N/A   Scattered Clouds
6:53 PM 42.8 °F - 39.2 °F 87% 30.18 in 10.0 mi Calm Calm - N/A   Overcast
7:53 PM 44.6 °F 42.2 °F 35.6 °F 71% 30.19 in 10.0 mi North 4.6 mph - N/A   Overcast
8:53 PM 42.8 °F 38.6 °F 32.0 °F 66% 30.22 in 10.0 mi North 6.9 mph - N/A   Mostly Cloudy
9:55 PM 41.5 °F 37.8 °F 32.5 °F 70% 30.22 in 10.0 mi NNE 5.8 mph - N/A   Clear
10:17 PM 41.2 °F 38.2 °F 32.0 °F 70% 30.23 in 10.0 mi NNE 4.6 mph - N/A   Clear
10:38 PM 40.8 °F 36.9 °F 32.0 °F 71% 30.24 in 10.0 mi North 5.8 mph - N/A   Clear
10:59 PM 40.3 °F 38.2 °F 32.0 °F 72% 30.25 in 10.0 mi North 3.5 mph - N/A   Clear
11:21 PM 40.3 °F 38.2 °F 31.8 °F 72% 30.25 in 10.0 mi NNE 3.5 mph - N/A   Clear